Wind_Speed
30 30 30 30 30 32 33 34 34 34 36 37 37 37 37 38 40 40 41 41 40 40 41 42 43 45 46 47 47 49 48 49 52 53 53 52 52 53 52 53 53 52 51 51
31 31 31 31 33 33 34 35 36 36 36 38 37 36 36 37 38 39 41 41 39 40 40 41 42 43 45 46 46 47 47 49 50 51 51 52 52 52 52 53 53 52 52 52
32 31 31 32 33 34 34 36 37 38 37 38 39 36 34 36 37 38 39 39 40 40 39 39 41 42 43 45 45 46 47 48 49 49 51 52 52 52 52 53 52 52 52 51
32 32 32 33 34 35 35 37 38 39 38 37 38 38 33 34 35 36 38 38 39 38 38 39 40 41 42 42 43 45 44 45 46 47 49 50 51 51 52 52 51 52 52 51
33 33 33 34 35 36 37 37 38 38 37 37 36 38 35 35 35 35 36 37 37 36 37 37 38 39 39 40 41 42 42 44 45 46 47 47 49 50 51 51 51 51 52 51
34 34 34 34 35 36 36 37 37 37 36 37 35 37 36 35 34 35 35 36 36 35 35 35 36 37 38 38 38 40 42 43 44 45 45 45 45 47 48 48 50 49 50 50
35 34 34 34 35 35 35 36 37 37 37 37 36 37 36 35 34 36 36 35 34 34 33 33 35 36 35 35 37 39 40 40 41 42 42 44 45 45 46 47 47 48 48 48
37 36 35 35 35 36 36 36 36 38 39 38 36 37 35 34 35 36 35 34 33 33 33 32 33 34 34 35 36 37 38 38 40 40 41 42 43 43 44 46 47 47 47 46
38 37 36 36 36 36 37 36 36 38 39 39 38 37 35 34 36 35 34 33 33 32 32 31 31 31 33 35 37 37 37 37 38 39 39 41 42 42 43 44 46 46 46 46
38 38 36 36 36 36 36 37 37 37 39 41 40 38 37 36 35 35 34 32 30 29 30 31 31 32 33 34 36 37 37 36 38 38 38 39 40 41 42 43 44 44 45 45
38 38 37 37 36 36 36 36 37 38 39 41 42 39 36 36 35 35 33 31 30 29 30 30 30 30 32 33 35 36 36 36 36 37 37 38 39 39 41 42 44 44 43 44
39 39 39 37 37 36 36 37 37 38 40 41 42 40 36 36 36 35 33 31 30 30 30 30 29 29 31 32 34 35 36 36 37 37 37 37 37 38 39 41 43 43 43 44
40 41 40 39 38 38 38 38 38 39 40 40 41 41 37 36 37 36 34 32 31 30 30 30 29 29 30 32 33 34 35 36 37 37 36 35 36 37 39 40 41 43 42 42
42 42 41 40 39 39 39 38 39 40 41 41 41 40 36 36 37 36 33 32 31 31 31 30 28 28 30 32 33 34 34 35 36 36 36 36 36 37 37 38 40 41 40 41
42 43 42 41 40 40 39 39 39 40 40 41 40 39 36 35 36 35 33 31 31 30 31 31 30 29 29 31 31 32 32 33 35 35 35 36 37 38 38 38 39 40 39 40
42 43 43 42 41 42 42 39 38 39 40 40 39 37 35 36 36 34 32 30 30 30 30 30 30 30 30 30 31 32 33 33 33 34 34 34 37 38 37 37 38 40 39 40
44 44 44 44 42 44 44 39 39 39 39 39 38 36 36 36 35 33 32 31 31 31 30 30 30 30 30 31 31 31 32 33 33 34 35 35 36 37 38 38 38 38 38 40
45 44 45 45 45 46 43 40 40 40 39 38 38 36 36 36 34 32 32 32 32 31 30 31 31 31 30 30 30 30 31 32 33 35 36 38 38 37 38 38 38 38 38 38
43 43 44 45 46 47 42 40 40 41 39 38 38 36 36 36 34 32 33 33 32 32 32 32 32 31 30 30 31 30 30 30 31 33 35 37 39 38 38 39 39 40 39 39
42 42 43 45 46 46 41 40 40 42 41 38 38 37 36 35 35 32 32 32 32 32 32 32 32 31 30 30 30 30 30 30 30 31 33 35 36 37 38 38 39 39 40 40
42 42 42 43 45 45 42 41 41 41 40 38 38 37 36 35 34 32 31 32 31 31 31 30 30 30 30 30 29 29 29 29 30 30 31 33 34 36 37 39 40 39 39 39
42 42 42 42 44 43 41 42 41 40 39 38 37 36 36 35 34 33 32 31 31 30 30 29 28 28 29 29 29 28 28 28 28 29 30 31 33 35 36 38 38 38 39 39
41 41 42 43 42 41 41 41 40 39 39 38 37 37 36 35 33 32 32 31 30 29 29 28 27 27 27 27 27 27 27 27 27 27 28 29 31 33 34 35 37 37 38 38
40 39 41 42 40 40 39 39 39 39 39 38 37 36 35 34 32 31 31 30 30 29 28 28 27 26 26 26 26 27 27 27 27 27 27 28 30 31 33 34 36 37 37 37
40 40 41 41 39 39 38 38 38 37 37 37 36 35 35 34 32 31 30 30 29 28 28 28 27 26 26 26 26 26 26 27 27 27 28 29 29 30 31 33 34 35 36 36
37 38 40 40 38 40 38 37 36 36 36 36 35 35 34 34 32 31 30 29 28 28 28 28 27 26 26 27 27 26 26 26 27 28 28 28 29 29 30 31 32 33 35 35
Wind_Direction
301 300 300 298 296 297 297 295 294 294 290 288 288 289 289 288 285 282 281 279 274 273 269 261 257 255 253 252 251 250 250 249 249 249 248 248 247 246 245 245 245 245 244 244
301 300 298 297 297 298 297 296 296 295 292 290 290 290 292 291 288 285 282 278 274 274 269 260 257 254 253 253 252 251 250 249 250 250 250 249 247 246 245 245 245 244 244 244
302 302 299 297 297 297 297 297 297 297 294 290 291 292 294 293 292 288 284 280 277 276 271 261 256 254 253 253 252 250 249 250 250 250 250 247 246 246 245 245 244 244 244 244
300 301 299 298 297 298 298 298 298 298 296 294 293 295 297 297 295 291 287 283 280 278 273 264 258 255 253 253 252 250 249 251 251 251 248 246 247 247 245 244 244 244 243 243
300 300 299 298 298 298 299 300 300 299 298 296 295 297 300 299 297 294 290 286 282 279 275 266 259 256 253 252 252 251 251 252 252 252 248 248 248 247 244 243 244 244 242 241
299 300 300 299 297 298 299 300 300 299 299 298 298 298 302 302 300 298 293 289 285 280 277 267 260 254 253 253 253 253 251 251 251 250 248 248 248 246 244 244 242 241 240 239
296 298 298 297 296 296 298 299 300 300 299 299 300 299 302 303 302 300 297 292 286 280 276 269 261 255 254 255 254 254 252 251 251 250 248 248 248 245 244 242 241 238 238 238
294 294 296 297 297 296 298 300 300 300 301 300 300 301 304 303 303 303 298 292 285 280 276 272 264 257 255 257 256 255 253 252 251 250 249 248 246 244 244 242 239 237 237 237
292 293 295 295 296 297 298 300 300 299 299 300 300 301 301 303 303 302 299 292 284 279 274 270 263 257 257 258 257 257 254 252 250 249 247 246 244 244 243 241 238 237 236 235
290 290 292 294 294 296 296 298 300 301 300 301 301 303 304 304 304 302 297 291 281 275 271 268 261 257 259 257 255 254 252 251 250 249 247 245 246 245 243 240 238 237 236 236
288 288 290 292 292 294 295 295 297 298 299 300 301 305 308 305 303 301 296 291 283 278 273 268 263 263 262 258 255 253 252 250 249 249 247 246 246 244 243 240 238 236 235 236
287 287 289 289 290 291 292 294 295 297 297 298 298 303 307 303 301 299 295 291 284 278 274 268 265 264 262 259 256 252 251 249 248 249 249 246 245 243 241 239 237 236 235 235
286 286 287 288 289 290 291 294 295 295 296 296 296 300 304 302 300 297 293 289 284 279 274 269 267 265 262 260 256 252 251 250 250 250 249 246 246 244 240 238 237 235 235 235
284 283 285 287 289 289 290 292 294 295 295 295 295 297 299 298 298 296 291 287 283 278 273 270 269 267 263 260 257 253 253 252 250 249 248 247 246 243 240 239 236 233 234 233
281 282 283 284 285 285 286 289 292 292 293 293 295 295 298 295 296 295 292 288 282 277 273 271 271 270 266 259 256 254 254 253 250 251 249 247 245 243 241 238 236 235 235 232
279 280 281 282 283 283 283 287 290 290 291 293 293 295 294 291 292 291 290 286 282 277 275 273 271 269 266 263 260 256 255 254 252 251 250 247 244 242 240 239 238 235 234 233
279 280 281 282 282 281 282 288 287 288 290 291 292 294 292 290 289 287 286 284 282 278 274 273 272 270 269 264 261 258 255 254 252 253 250 246 244 242 240 240 240 238 236 234
278 280 281 282 282 280 285 285 285 286 287 290 291 292 291 289 287 286 285 284 282 278 274 273 273 271 268 265 261 260 258 255 255 254 249 246 244 242 240 239 240 239 236 234
277 278 279 281 282 283 284 285 285 285 286 288 289 290 289 287 285 284 282 283 281 277 276 275 274 271 268 265 262 260 259 258 257 253 248 246 243 241 240 241 240 238 236 234
276 277 278 280 281 283 286 284 284 285 286 286 286 287 287 286 284 283 280 279 278 277 277 276 274 270 268 266 263 261 258 257 256 253 248 245 243 242 241 241 239 238 236 235
276 276 276 278 280 281 284 285 286 286 288 287 285 286 285 283 282 281 278 278 276 275 276 275 274 270 268 266 264 261 258 256 255 253 250 246 245 243 242 241 240 239 238 236
276 275 276 277 278 281 284 283 284 285 285 285 284 284 283 281 279 278 278 277 275 275 275 275 274 271 267 265 264 261 259 257 255 253 250 246 244 242 241 240 240 239 237 236
273 274 275 276 278 281 281 282 282 282 282 283 283 282 282 281 279 278 277 276 274 273 273 274 273 270 267 264 261 260 259 258 255 253 250 246 243 241 239 239 239 239 236 234
272 273 274 275 278 279 280 280 280 279 280 281 281 280 280 280 279 277 275 274 273 272 273 273 272 269 266 264 261 259 258 257 255 253 251 248 245 243 241 239 237 236 234 232
272 273 274 276 278 278 277 278 277 277 278 278 279 279 279 279 277 276 274 273 273 273 273 272 270 268 265 264 262 259 258 257 254 253 252 250 247 244 241 238 235 234 232 232
274 275 275 276 276 276 276 276 276 276 276 277 277 277 278 277 275 274 273 273 272 272 272 271 270 269 265 262 260 258 257 257 254 253 252 249 247 244 242 238 234 232 232 232
Height
5680 5678 5674 5671 5668 5666 5663 5660 5658 5655 5651 5648 5646 5643 5641 5637 5633 5631 5628 5627 5626 5625 5626 5626 5629 5631 5635 5638 5641 5645 5649 5653 5657 5661 5666 5670 5674 5678 5683 5687 5692 5696 5701 5705
5674 5671 5668 5664 5661 5658 5655 5652 5649 5647 5642 5638 5636 5634 5632 5627 5623 5620 5618 5616 5615 5614 5614 5615 5618 5620 5623 5626 5629 5633 5637 5641 5644 5648 5653 5656 5661 5665 5669 5673 5678 5683 5687 5692
5666 5664 5660 5657 5654 5651 5648 5643 5640 5637 5634 5630 5626 5626 5623 5619 5614 5610 5607 5605 5603 5603 5603 5604 5607 5609 5612 5615 5618 5622 5625 5628 5631 5635 5639 5642 5646 5651 5656 5660 5665 5669 5674 5679
5659 5656 5653 5649 5646 5643 5640 5636 5632 5627 5624 5621 5618 5614 5616 5610 5605 5600 5597 5595 5593 5592 5592 5593 5595 5598 5601 5604 5607 5610 5613 5616 5619 5622 5626 5630 5634 5638 5643 5647 5652 5656 5661 5666
5652 5649 5646 5642 5639 5635 5632 5627 5624 5620 5615 5613 5611 5606 5607 5602 5597 5593 5589 5586 5583 5582 5582 5582 5584 5587 5590 5593 5596 5599 5602 5605 5607 5610 5614 5617 5621 5625 5630 5634 5638 5643 5648 5653
5645 5642 5638 5635 5631 5627 5623 5620 5616 5612 5608 5606 5604 5599 5597 5594 5590 5586 5581 5577 5575 5574 5574 5574 5575 5578 5581 5583 5585 5587 5590 5594 5596 5599 5602 5606 5609 5613 5617 5621 5626 5630 5635 5640
5638 5635 5631 5627 5624 5620 5616 5612 5608 5603 5600 5598 5595 5591 5590 5587 5582 5577 5574 5570 5567 5565 5565 5566 5568 5570 5573 5574 5576 5577 5580 5583 5585 5588 5592 5595 5598 5601 5606 5610 5614 5619 5624 5630
5629 5627 5624 5620 5617 5613 5609 5605 5601 5595 5591 5589 5587 5584 5585 5580 5575 5570 5566 5562 5560 5559 5558 5559 5560 5562 5564 5566 5567 5569 5571 5574 5576 5579 5582 5585 5588 5591 5595 5599 5604 5609 5614 5619
5619 5618 5616 5613 5609 5606 5601 5598 5594 5588 5583 5580 5579 5577 5577 5573 5567 5562 5558 5555 5553 5552 5552 5552 5554 5555 5557 5558 5559 5560 5562 5565 5567 5569 5572 5575 5578 5581 5585 5589 5594 5599 5604 5609
5610 5609 5608 5605 5602 5598 5595 5590 5586 5581 5574 5570 5569 5569 5568 5564 5559 5555 5551 5548 5546 5546 5546 5546 5547 5548 5548 5549 5551 5552 5554 5556 5559 5561 5563 5566 5568 5571 5575 5579 5584 5589 5594 5599
5601 5600 5599 5597 5594 5591 5587 5584 5578 5573 5569 5563 5558 5562 5561 5555 5550 5546 5543 5540 5538 5538 5539 5538 5539 5540 5540 5541 5542 5544 5546 5548 5550 5552 5554 5557 5559 5562 5566 5570 5574 5579 5584 5589
5592 5590 5589 5588 5586 5582 5579 5576 5572 5567 5562 5556 5550 5553 5553 5548 5542 5538 5535 5533 5531 5531 5531 5531 5531 5532 5532 5533 5535 5536 5537 5539 5541 5543 5545 5547 5550 5553 5556 5560 5565 5570 5575 5580
5582 5580 5579 5578 5579 5574 5570 5567 5563 5558 5554 5549 5544 5545 5545 5539 5534 5530 5527 5525 5524 5524 5524 5524 5524 5524 5525 5525 5527 5528 5529 5531 5533 5535 5536 5539 5542 5545 5548 5552 5556 5561 5566 5571
5571 5570 5570 5569 5567 5563 5561 5559 5555 5550 5545 5541 5539 5536 5537 5532 5526 5523 5520 5518 5516 5516 5516 5517 5517 5517 5517 5518 5518 5520 5521 5523 5524 5526 5528 5531 5534 5537 5540 5544 5548 5552 5557 5563
5561 5559 5559 5558 5557 5553 5552 5550 5547 5542 5538 5533 5531 5528 5528 5523 5519 5516 5513 5511 5510 5510 5510 5510 5510 5510 5510 5510 5511 5512 5513 5514 5516 5518 5520 5522 5526 5529 5532 5536 5540 5544 5549 5555
5551 5549 5547 5548 5547 5543 5541 5542 5539 5534 5530 5525 5522 5521 5520 5515 5512 5510 5507 5506 5505 5504 5504 5504 5503 5503 5503 5503 5503 5504 5505 5507 5508 5510 5512 5514 5517 5521 5524 5528 5532 5536 5541 5547
5540 5538 5536 5535 5535 5531 5532 5535 5530 5525 5522 5518 5514 5514 5511 5508 5505 5503 5501 5499 5498 5497 5497 5496 5496 5495 5495 5495 5495 5496 5497 5499 5500 5501 5503 5506 5509 5512 5516 5520 5524 5528 5533 5538
5529 5527 5524 5522 5523 5519 5526 5523 5519 5515 5513 5510 5506 5504 5501 5498 5497 5496 5493 5492 5491 5489 5489 5488 5487 5487 5487 5487 5488 5488 5489 5490 5491 5493 5495 5497 5500 5504 5508 5512 5516 5520 5525 5530
5519 5516 5513 5510 5507 5507 5513 5512 5507 5503 5503 5502 5497 5495 5492 5489 5489 5489 5486 5484 5483 5482 5481 5480 5479 5479 5479 5479 5479 5480 5481 5482 5483 5484 5486 5489 5492 5495 5499 5503 5507 5512 5517 5522
5508 5506 5503 5500 5496 5496 5503 5501 5496 5493 5492 5493 5488 5485 5483 5481 5480 5481 5478 5476 5475 5473 5472 5471 5471 5471 5471 5471 5471 5472 5473 5473 5474 5476 5478 5480 5483 5487 5490 5494 5499 5503 5508 5514
5496 5494 5492 5490 5485 5485 5492 5489 5486 5484 5483 5480 5478 5475 5473 5472 5470 5470 5469 5467 5466 5465 5464 5463 5463 5462 5462 5462 5463 5464 5464 5466 5467 5468 5470 5472 5475 5478 5482 5486 5490 5495 5499 5505
5484 5482 5481 5479 5476 5479 5480 5476 5475 5473 5471 5469 5467 5465 5463 5462 5461 5460 5460 5459 5458 5457 5456 5455 5455 5454 5454 5454 5454 5456 5457 5458 5459 5460 5462 5464 5467 5470 5473 5477 5481 5486 5491 5496
5472 5472 5469 5468 5469 5470 5467 5465 5463 5461 5459 5458 5456 5455 5454 5453 5452 5451 5451 5450 5449 5449 5448 5447 5447 5446 5446 5446 5447 5448 5449 5450 5451 5452 5454 5456 5458 5462 5465 5469 5473 5477 5482 5488
5461 5460 5457 5456 5458 5458 5456 5454 5452 5450 5448 5447 5446 5445 5444 5443 5442 5442 5441 5441 5441 5440 5440 5439 5439 5439 5439 5439 5439 5440 5441 5442 5443 5444 5446 5448 5450 5454 5457 5461 5464 5469 5474 5480
5449 5448 5446 5445 5447 5445 5445 5443 5441 5439 5438 5437 5436 5435 5434 5433 5433 5432 5432 5432 5432 5432 5431 5431 5431 5431 5431 5431 5432 5433 5434 5434 5435 5437 5438 5440 5443 5446 5449 5453 5456 5461 5466 5472
5440 5437 5435 5434 5435 5432 5432 5432 5430 5429 5428 5427 5426 5426 5425 5424 5423 5423 5423 5423 5423 5423 5423 5423 5423 5423 5423 5424 5424 5425 5426 5427 5428 5429 5431 5433 5435 5438 5441 5445 5449 5453 5458 5464